Durango, CO

12:05 AM MST on November 21, 2017 (GMT -0700)
Durango-La Plata County

Weather History for KDRO - July, 2013

Change the Weather History Date:

Saturday, July 13, 2013

  Actual Average Record
Temperature  
Mean Temperature 72 °F 69 °F  
Max Temperature 87 °F 86 °F 98 °F (1971)
Min Temperature 56 °F 51 °F 39 °F (1997)
Degree Days  
Heating Degree Days 0 0  
Month to date heating degree days 0 8  
Since 1 June heating degree days 40 123  
Since 1 July heating degree days 0 8  
Cooling Degree Days 7 4  
Month to date cooling degree days 91 41  
Year to date cooling degree days 146 70  
Since 1 June cooling degree days 146 69  
Growing Degree Days 22 (Base 50)    
Moisture  
Dew Point 52 °F    
Average Humidity 59    
Maximum Humidity 93    
Minimum Humidity 25    
Precipitation  
Precipitation 0.00 in 0.05 in 0.91 in (1981)
Month to date precipitation 0.68 0.50  
Year to date precipitation 4.45 6.57  
Sea Level Pressure  
Sea Level Pressure 30.00 in    
Wind  
Wind Speed 5 mph (WSW)    
Max Wind Speed 18 mph    
Max Gust Speed 24 mph    
Visibility 10 miles    
Events      
T = Trace of Precipitation, MM = Missing Value Source: NWS Daily Summary

Daily Weather History Graph

Daily Weather History Graph

Search for Another Location

Airport or City:

Trip Planner

Search our weather history database for the weather conditions in past years. The results will help you decide how hot, cold, wet, or windy it might be!

Date:

Astronomy

Jul. 13, 2013 Rise Set
Actual Time 6:01 AM MDT 8:31 PM MDT
Civil Twilight 5:31 AM MDT 9:01 PM MDT
Nautical Twilight 4:54 AM MDT 9:39 PM MDT
Astronomical Twilight 4:12 AM MDT 10:20 PM MDT
Moon 11:12 AM MDT (7/13) 11:23 PM MDT (7/13)
Length of Visible Light 15h 30m
Length of Day
14h 30m
Waxing Crescent, 26% of the Moon is Illuminated
Jul 13
Waxing Crescent
Jul 15
First Quarter
Jul 22
Full
Jul 29
Last Quarter
Aug 6
New

Hourly Weather History & Observations

Time (MDT) Temp. Dew Point Humidity Pressure Visibility Wind Dir Wind Speed Gust Speed Precip Events Conditions
12:53 AM 63.0 °F 55.9 °F 78% 29.98 in 10.0 mi Calm Calm - N/A   Partly Cloudy
1:53 AM 62.1 °F 55.9 °F 80% 29.97 in 10.0 mi NW 3.5 mph - N/A   Clear
2:53 AM 61.0 °F 55.9 °F 83% 29.97 in 10.0 mi Calm Calm - N/A   Clear
3:53 AM 57.9 °F 55.9 °F 93% 29.99 in 10.0 mi Calm Calm - N/A   Clear
4:53 AM 57.0 °F 54.0 °F 89% 30.03 in 10.0 mi Calm Calm - N/A   Scattered Clouds
5:53 AM 57.0 °F 53.1 °F 87% 30.06 in 10.0 mi ESE 3.5 mph - N/A   Overcast
6:53 AM 57.0 °F 54.0 °F 89% 30.08 in 10.0 mi North 3.5 mph - N/A   Clear
7:53 AM 61.0 °F 55.9 °F 83% 30.07 in 10.0 mi Calm Calm - N/A   Overcast
8:53 AM 63.0 °F 55.9 °F 78% 30.09 in 10.0 mi West 3.5 mph - N/A   Overcast
9:53 AM 66.0 °F 53.1 °F 63% 30.09 in 10.0 mi Calm Calm - N/A   Partly Cloudy
10:53 AM 72.0 °F 54.0 °F 53% 30.06 in 10.0 mi Calm Calm - N/A   Partly Cloudy
11:53 AM 75.9 °F 51.1 °F 42% 30.03 in 10.0 mi Variable 3.5 mph - N/A   Clear
12:53 PM 79.0 °F 52.0 °F 39% 30.00 in 10.0 mi West 5.8 mph - N/A   Clear
1:53 PM 82.9 °F 51.1 °F 33% 29.96 in 10.0 mi West 9.2 mph - N/A   Clear
2:53 PM 84.9 °F 50.0 °F 30% 29.94 in 10.0 mi WSW 11.5 mph 18.4 mph N/A   Clear
3:53 PM 84.9 °F 48.9 °F 29% 29.92 in 10.0 mi SW 5.8 mph - N/A   Clear
4:53 PM 86.0 °F 46.9 °F 26% 29.91 in 10.0 mi SW 8.1 mph - N/A   Clear
5:53 PM 84.9 °F 45.0 °F 25% 29.90 in 10.0 mi West 13.8 mph - N/A   Clear
6:53 PM 82.0 °F 48.0 °F 30% 29.93 in 10.0 mi SSW 11.5 mph - N/A   Clear
7:53 PM 75.9 °F 51.1 °F 42% 29.96 in 10.0 mi ESE 12.7 mph 18.4 mph N/A   Scattered Clouds
8:53 PM 71.1 °F 52.0 °F 51% 30.00 in 10.0 mi East 11.5 mph - N/A   Clear
9:53 PM 71.1 °F 52.0 °F 51% 30.01 in 10.0 mi ESE 4.6 mph - N/A   Partly Cloudy
10:53 PM 68.0 °F 54.0 °F 61% 30.01 in 10.0 mi Calm Calm - N/A   Clear
11:53 PM 69.1 °F 54.0 °F 58% 29.99 in 10.0 mi North 4.6 mph - N/A   Mostly Cloudy